sat.trackr.live / text

‹ back to catalog

STARLINK-4054

NORAD 53158 · 2022-083AC

PAYLOAD ACTIVE UNKNOWN

§ Identity

Operator
Country
US
Launch date
2022-07-17
Launch site
AFETR
Launch vehicle
Mass (kg)
RCS (m²)

Purposes: comms

External: N2YO · Heavens-Above · Gunter

§ Orbital elements

Epoch: 2026-09-20T00:08:39.562080Z

Period
93.79 min
Inclination
53.1606°
Eccentricity
0.0001094
Mean motion
15.35403512 rev/d
Perigee alt
459.0 km
Apogee alt
460.5 km
Semi-major
6,837.9 km
B*
4.0973e-5
RAAN
358.4885°
Arg perigee
77.3974°
Mean anomaly
282.7151°
Rev number
23,087

§ Raw data

STARLINK-40541 53158U 22083AC  26263.00601345  .00001049  00000+0  40973-4 0  99952 53158  53.1606 358.4885 0001094  77.3974 282.7151 15.35403512230872

JSON: /api/v1/satellites/53158 · /tle

For live sub-satellite position, see the globe view (requires WebGL).

§ Visibility from observer

Set your observer location to see the next 7 days of passes ≥ 10°. The values pass through the URL so the page stays shareable.

No JS? Fill the form by hand. The geolocation button needs JavaScript.